TimePDT,TemperatureF,Dew PointF,Humidity,Sea Level PressureIn,VisibilityMPH,Wind Direction,Wind SpeedMPH,Gust SpeedMPH,PrecipitationIn,Events,Conditions,WindDirDegrees,DateUTC
12:56 AM,21.0,17.1,85,30.47,10.0,Calm,Calm,-,N/A,,Clear,0,2013-03-10 08:56:00
1:56 AM,19.0,17.1,92,30.46,10.0,Calm,Calm,-,N/A,,Clear,0,2013-03-10 09:56:00
3:56 AM,18.0,15.1,88,30.47,10.0,Calm,Calm,-,N/A,,Clear,0,2013-03-10 10:56:00
4:56 AM,17.1,14.0,88,30.47,10.0,Calm,Calm,-,N/A,,Clear,0,2013-03-10 11:56:00
5:56 AM,16.0,12.9,88,30.47,10.0,Calm,Calm,-,N/A,,Clear,0,2013-03-10 12:56:00
6:56 AM,16.0,12.0,84,30.49,10.0,Calm,Calm,-,N/A,,Clear,0,2013-03-10 13:56:00
7:56 AM,16.0,12.9,88,30.51,10.0,Calm,Calm,-,N/A,,Clear,0,2013-03-10 14:56:00
8:56 AM,24.1,19.9,84,30.49,10.0,Calm,Calm,-,N/A,,Clear,0,2013-03-10 15:56:00
9:56 AM,33.1,24.1,70,30.44,10.0,Calm,Calm,-,N/A,,Partly Cloudy,0,2013-03-10 16:56:00
10:56 AM,45.0,10.0,24,30.42,10.0,Variable,5.8,-,N/A,,Partly Cloudy,0,2013-03-10 17:56:00
11:56 AM,45.0,12.9,27,30.43,10.0,Variable,5.8,-,N/A,,Overcast,0,2013-03-10 18:56:00
12:56 PM,46.9,12.0,24,30.39,10.0,Variable,3.5,-,N/A,,Partly Cloudy,0,2013-03-10 19:56:00
1:56 PM,48.0,12.0,24,30.37,10.0,Variable,3.5,-,N/A,,Overcast,0,2013-03-10 20:56:00
2:56 PM,48.0,19.0,32,30.36,10.0,Variable,3.5,-,N/A,,Overcast,0,2013-03-10 21:56:00
3:56 PM,43.0,28.9,58,30.39,9.0,Variable,4.6,-,0.00,Rain,Light Rain,0,2013-03-10 22:56:00
4:43 PM,39.2,33.8,81,30.31,7.0,Variable,4.6,-,0.00,Rain,Light Rain,0,2013-03-10 23:43:00
4:56 PM,39.0,34.0,82,30.41,4.0,Variable,3.5,-,0.01,Rain,Light Rain,0,2013-03-10 23:56:00
5:56 PM,37.9,36.0,93,30.40,5.0,Calm,Calm,-,0.06,Rain,Light Rain,0,2013-03-11 00:56:00
6:56 PM,37.0,35.1,93,30.39,7.0,Calm,Calm,-,0.01,Rain,Light Rain,0,2013-03-11 01:56:00
7:56 PM,37.0,35.1,93,30.37,8.0,Calm,Calm,-,0.01,,Overcast,0,2013-03-11 02:56:00
8:26 PM,37.4,35.6,93,30.28,5.0,Calm,Calm,-,0.00,Rain,Light Rain,0,2013-03-11 03:26:00
8:40 PM,35.6,35.6,100,30.28,2.5,Calm,Calm,-,0.00,Rain,Light Rain,0,2013-03-11 03:40:00
8:47 PM,35.6,35.6,100,30.28,3.0,Calm,Calm,-,0.00,Rain,Light Rain,0,2013-03-11 03:47:00
8:56 PM,36.0,35.1,97,30.37,6.0,Calm,Calm,-,0.00,Rain,Light Rain,0,2013-03-11 03:56:00
9:26 PM,37.4,35.6,93,30.28,8.0,Calm,Calm,-,0.01,Rain,Light Rain,0,2013-03-11 04:26:00
9:56 PM,39.0,36.0,89,30.34,10.0,Calm,Calm,-,0.01,,Overcast,0,2013-03-11 04:56:00
10:56 PM,39.0,36.0,89,30.32,10.0,Variable,3.5,-,N/A,,Overcast,0,2013-03-11 05:56:00
11:47 PM,39.2,35.6,87,30.28,8.0,Calm,Calm,-,0.00,Rain,Light Rain,0,2013-03-11 06:47:00
11:56 PM,39.0,36.0,89,30.32,7.0,Calm,Calm,-,0.00,Rain,Light Rain,0,2013-03-11 06:56:00
12:04 AM,39.2,35.6,87,30.28,6.0,Calm,Calm,-,0.01,Rain,Light Rain,0,2013-03-11 07:04:00
12:56 AM,37.9,37.0,97,30.31,9.0,Variable,3.5,-,0.02,Rain,Light Rain,0,2013-03-11 07:56:00